PDT,Max TemperatureF,Mean TemperatureF,Min TemperatureF,Max Dew PointF,MeanDew PointF,Min DewpointF,Max Humidity, Mean Humidity, Min Humidity, Max Sea Level PressureIn, Mean Sea Level PressureIn, Min Sea Level PressureIn, Max VisibilityMiles, Mean VisibilityMiles, Min VisibilityMiles, Max Wind SpeedMPH, Mean Wind SpeedMPH, Max Gust SpeedMPH,PrecipitationIn, CloudCover, Events, WindDirDegrees
2012-3-1,33,21,9,27,20,8,92,68,43,30.42,30.05,29.85,10,5,0,30,10,48,0.05,5,Fog-Snow,278
2012-3-2,42,21,-1,15,8,-5,96,58,20,30.58,30.51,30.33,10,8,2,8,1,8,0.00,0,,6
2012-3-3,54,33,11,30,21,9,96,67,38,30.60,30.51,30.43,10,9,5,6,1,7,0.00,0,,82
2012-3-4,63,40,17,32,25,15,100,62,23,30.41,30.26,30.14,10,10,7,8,1,10,0.00,0,,292
2012-3-5,57,39,21,32,26,19,96,66,35,30.12,29.97,29.69,10,9,2,26,8,36,0.00,1,,240
2012-3-6,43,31,19,28,17,7,78,56,33,30.18,29.92,29.68,10,8,2,14,13,24,T,5,Snow,339
2012-3-7,48,31,14,18,14,9,80,54,28,30.46,30.33,30.19,10,10,9,7,3,9,0.00,0,,16
2012-3-8,62,39,15,22,17,13,92,54,15,30.48,30.42,30.36,10,9,3,16,5,23,0.00,0,,139
2012-3-9,68,44,19,23,20,16,81,49,16,30.41,30.25,30.08,10,10,8,20,4,24,0.00,0,,234
2012-3-10,60,45,30,27,22,11,72,44,16,30.07,29.91,29.78,10,10,10,23,8,30,0.00,2,,239
2012-3-11,46,39,31,34,30,24,96,73,49,29.88,29.81,29.69,10,8,2,32,13,45,0.04,7,Rain-Snow,229
2012-3-12,52,39,26,29,24,19,85,57,29,29.90,29.79,29.62,10,10,10,40,17,54,0.00,5,,193
2012-3-13,45,42,38,37,34,25,100,75,49,29.82,29.68,29.49,10,10,9,40,17,53,0.19,7,Rain,202
2012-3-14,48,42,36,40,37,36,100,85,70,30.01,29.91,29.80,10,10,8,17,9,23,0.09,8,Rain,199
2012-3-15,55,49,42,43,39,35,92,76,59,30.00,29.92,29.76,10,10,9,32,13,38,0.04,8,Rain,194
2012-3-16,52,42,32,39,35,30,100,81,61,29.82,29.68,29.47,10,9,2,29,11,39,0.20,7,Rain-Snow,207
2012-3-17,45,35,24,27,22,16,88,61,33,29.57,29.51,29.43,10,10,3,15,4,21,0.00,3,,328
2012-3-18,37,29,21,27,23,16,92,74,56,29.85,29.56,29.44,10,6,0,24,8,30,0.07,7,Fog-Snow,288
2012-3-19,38,25,12,23,16,9,92,66,40,30.01,29.95,29.82,10,10,5,14,5,26,T,4,,225
2012-3-20,45,37,28,36,30,24,92,81,70,30.13,30.05,29.97,10,8,1,17,6,21,0.09,7,Snow,262
2012-3-21,58,47,36,39,36,33,85,64,43,30.08,29.96,29.79,10,10,9,24,13,31,T,5,,204
2012-3-22,54,45,36,39,35,32,92,69,45,29.88,29.80,29.71,10,10,9,29,9,41,0.02,7,Rain,271
2012-3-23,51,39,26,32,23,9,92,56,19,29.96,29.88,29.81,10,10,10,18,5,25,T,5,,222
2012-3-24,53,40,26,26,18,8,85,51,17,29.88,29.78,29.72,10,10,9,18,5,24,0.00,3,,230
2012-3-25,49,39,28,34,28,24,92,71,49,29.76,29.71,29.66,10,10,7,23,7,29,T,5,Rain-Snow,261
2012-3-26,45,37,28,28,24,17,92,63,33,29.96,29.88,29.75,10,10,9,28,10,39,T,6,,223
2012-3-27,53,43,32,32,26,22,70,52,33,29.92,29.81,29.73,10,10,10,35,18,41,T,5,Rain,175
2012-3-28,46,39,32,37,31,28,100,77,53,30.02,29.87,29.71,10,6,0,29,11,39,0.27,6,Fog-Rain-Snow,230
2012-3-29,50,43,35,35,32,27,82,69,56,30.01,29.96,29.91,10,10,10,23,14,30,0.00,7,,180
2012-3-30,57,50,42,43,37,33,76,63,50,29.96,29.87,29.72,10,10,10,28,15,36,0.00,7,,182
2012-3-31,52,42,32,36,31,23,100,72,44,29.77,29.60,29.40,10,7,0,41,18,54,0.04,6,Fog-Rain-Snow,210